User: anonymous   Login
Location: Unspecified
(0.0000°N, 0.0000°E)
Time: 00:57:54
(UTC+00:00)
Language:

GOES 2 - Orbit

View from above orbital plane
View from above orbital plane
View from above satellite
View from above satellite

Ground track
Ground track

The orbit data is extracted from the following two-line orbital elements,

1 10061U 77048A   21023.50261948  .00000115  00000-0  00000-0 0  9994
2 10061  10.9595 312.6566 0015762   6.9519 212.8823  0.99395202 26686
Epoch (UTC): 23 January 2021 12:03:46
Eccentricity: 0.0015762
inclination: 10.9595°
perigee height: 35967 km
apogee height: 36100 km
right ascension of ascending node: 312.6566°
argument of perigee: 6.9519°
revolutions per day: 0.99395202
mean anomaly at epoch: 212.8823°
orbit number at epoch: 2668

The dashed part of the orbit path shows where the satellite is in the earth's shadow,  

DLR